Location: Alvis C Story Elementary School
(33.0968°N, 96.6364°W)
Time: 06:53:58
(UTC+00:00)

Cosmos 1602 - Pass Details

Date: 03 July 2022
Orbit: 509 x 526 km, 82.5° (Epoch: 14 August)

Event Time Altitude Azimuth Distance (km) Brightness Sun altitude
Exits shadow 08:39:09 30° 87° (E) 941 5.3 -26.1°
Drops below altitude 10° 08:42:20 10° 30° (NNE) 1,729 7.4 -25.8°
Sets 08:44:38 0° 19° (NNE) 2,620 8.5 -25.5°
